Chanute, KS

7:34 AM CDT on March 28, 2017 (GMT -0500)
Chanute Martin Johnson

Weather History for KCNU - April, 2013

Change the Weather History Date:

Tuesday, April 9, 2013

  Actual Average Record
Temperature  
Mean Temperature 61 °F 55 °F  
Max Temperature 74 °F 66 °F 89 °F (1930)
Min Temperature 47 °F 44 °F 24 °F (2003)
Degree Days  
Heating Degree Days 4 11  
Month to date heating degree days 108 108  
Since 1 July heating degree days 3906 4239  
Cooling Degree Days 0 1  
Month to date cooling degree days 1 5  
Year to date cooling degree days 2 9  
Growing Degree Days 12 (Base 50)    
Moisture  
Dew Point 59 °F    
Average Humidity 73    
Maximum Humidity 78    
Minimum Humidity 68    
Precipitation  
Precipitation 0.02 in 0.14 in 1.33 in (1956)
Month to date precipitation 0.17 1.14  
Year to date precipitation 7.08 7.34  
Sea Level Pressure  
Sea Level Pressure 29.69 in    
Wind  
Wind Speed 13 mph (South)    
Max Wind Speed 26 mph    
Max Gust Speed 35 mph    
Visibility 10 miles    
Events Rain , Thunderstorm    
T = Trace of Precipitation, MM = Missing Value Source: NWS Daily Summary

Daily Weather History Graph

Daily Weather History Graph

Search for Another Location

Airport or City:

Trip Planner

Search our weather history database for the weather conditions in past years. The results will help you decide how hot, cold, wet, or windy it might be!

Date:

Astronomy

Apr. 09, 2013 Rise Set
Actual Time 6:55 AM CDT 7:52 PM CDT
Civil Twilight 6:28 AM CDT 8:19 PM CDT
Nautical Twilight 5:56 AM CDT 8:50 PM CDT
Astronomical Twilight 5:23 AM CDT 9:23 PM CDT
Moon 6:17 AM CDT (4/9) 7:28 PM CDT (4/9)
Length of Visible Light 13h 50m
Length of Day
12h 57m
Waning Crescent, 1% of the Moon is Illuminated
Apr 9
Waning Crescent
Apr 10
New
Apr 18
First Quarter
Apr 25
Full
May 2
Last Quarter

Hourly Weather History & Observations

Time (CDT) Temp. Dew Point Humidity Pressure Visibility Wind Dir Wind Speed Gust Speed Precip Events Conditions
12:52 AM 64.0 °F 57.9 °F 80% 29.65 in 10.0 mi ESE 11.5 mph - N/A   Mostly Cloudy
1:52 AM 64.9 °F 57.9 °F 78% 29.63 in 10.0 mi SE 12.7 mph - N/A   Mostly Cloudy
2:52 AM 66.0 °F 57.9 °F 75% 29.63 in 10.0 mi SE 9.2 mph - N/A   Overcast
3:52 AM 66.9 °F 57.9 °F 73% 29.61 in 10.0 mi SSE 12.7 mph - N/A   Overcast
4:52 AM 66.0 °F 57.9 °F 75% 29.62 in 10.0 mi South 12.7 mph - N/A   Overcast
5:52 AM 66.0 °F 57.0 °F 73% 29.63 in 10.0 mi South 13.8 mph 21.9 mph N/A   Overcast
6:52 AM 66.9 °F 57.0 °F 70% 29.65 in 10.0 mi South 15.0 mph - N/A   Overcast
7:52 AM 66.9 °F 57.0 °F 70% 29.67 in 10.0 mi SSE 15.0 mph - N/A   Overcast
8:26 AM 66.2 °F 57.2 °F 73% 29.70 in 10.0 mi South 16.1 mph 23.0 mph N/A   Overcast
8:52 AM 66.9 °F 57.9 °F 73% 29.69 in 10.0 mi South 15.0 mph - N/A   Overcast
9:52 AM 68.0 °F 59.0 °F 73% 29.70 in 10.0 mi South 17.3 mph 24.2 mph N/A   Overcast
10:11 AM 69.8 °F 60.8 °F 73% 29.72 in 10.0 mi South 21.9 mph 26.5 mph N/A   Overcast
10:52 AM 71.1 °F 60.1 °F 68% 29.70 in 10.0 mi South 19.6 mph 25.3 mph N/A   Overcast
11:04 AM 71.6 °F 60.8 °F 69% 29.73 in 10.0 mi South 17.3 mph - N/A   Overcast
11:52 AM 70.0 °F 61.0 °F 73% 29.71 in 9.0 mi South 16.1 mph 23.0 mph N/A   Overcast
12:52 PM 71.1 °F 62.1 °F 73% 29.72 in 10.0 mi South 9.2 mph - N/A   Overcast
1:52 PM 72.0 °F 62.1 °F 71% 29.70 in 9.0 mi SSE 10.4 mph - N/A   Overcast
2:52 PM 73.0 °F 62.1 °F 68% 29.69 in 10.0 mi SSE 15.0 mph - N/A   Overcast
3:52 PM 73.0 °F 62.1 °F 68% 29.68 in 9.0 mi SSE 10.4 mph - N/A   Overcast
4:52 PM 73.0 °F 63.0 °F 71% 29.67 in 9.0 mi South 12.7 mph 18.4 mph N/A   Overcast
5:52 PM 73.0 °F 63.0 °F 71% 29.67 in 9.0 mi SSE 9.2 mph - N/A   Overcast
6:52 PM 71.1 °F 63.0 °F 75% 29.68 in 9.0 mi SSE 4.6 mph - N/A   Overcast
7:52 PM 70.0 °F 63.0 °F 78% 29.68 in 9.0 mi ESE 5.8 mph - 0.00 in   Overcast
8:52 PM 69.1 °F 63.0 °F 81% 29.67 in 8.0 mi ESE 6.9 mph - N/A   Overcast
9:52 PM 70.0 °F 63.0 °F 78% 29.67 in 9.0 mi SE 9.2 mph - N/A   Overcast
10:30 PM 55.4 °F 51.8 °F 88% 29.74 in 10.0 mi WNW 15.0 mph - 0.00 in Rain , Thunderstorm Light Thunderstorms and Rain
10:52 PM 54.0 °F 51.1 °F 90% 29.72 in 10.0 mi WNW 12.7 mph - 0.02 in Thunderstorm Thunderstorm
11:09 PM 53.6 °F 50.0 °F 88% 29.75 in 10.0 mi WNW 18.4 mph - N/A   Overcast
11:20 PM 51.8 °F 50.0 °F 94% 29.74 in 10.0 mi NW 13.8 mph - N/A   Overcast
11:52 PM 51.1 °F 48.9 °F 92% 29.78 in 10.0 mi WNW 20.7 mph 27.6 mph N/A   Overcast